Location: Unnamed
(47.6264°N, 122.3366°W)
Time: 07:42:30
(UTC-07:00)

X-37B - Pass Details

Date: 27 June 2021
Orbit: 383 x 392 km, 45.0° (Epoch: 01 July)

Event Time Altitude Azimuth Distance (km) Brightness Sun altitude
Rises 23:40:43 0° 270° (W) 2,257 4.8 -16.2°
Reaches altitude 10° 23:42:50 10° 264° (W) 1,403 3.6 -16.3°
Enters shadow 23:45:45 44° 198° (SSW) 544 0.9 -16.5°
